Le nostre stazioni meteo in Italia

Pubblicità
Il mio iltempo24.it
Fyvie castle, Gran Bretagna (99010): Temperatura & dewpoint: 13.04.2019 16:00:00 - 19.04.2019 16:00:00 (BST)Fyvie castle, Gran Bretagna (99010): precipitazioni: 13.04.2019 16:00:00 - 19.04.2019 16:00:00 (BST)
Data & Tempo tt [°C] td [°C] rr [mm]
19.04.2019 16:00:00 18,4 6,2 -
19.04.2019 15:00:00 19,5 6,6 0,0
19.04.2019 14:00:00 18,7 5,8 0,0
19.04.2019 13:00:00 18,0 6,6 0,0
19.04.2019 12:00:00 15,3 7,3 0,0
19.04.2019 11:00:00 14,4 7,9 0,0
19.04.2019 10:00:00 11,9 8,2 0,0
19.04.2019 09:00:00 8,8 8,2 0,0
19.04.2019 08:00:00 7,0 6,9 0,0
19.04.2019 07:00:00 6,3 6,2 0,0
19.04.2019 06:00:00 5,9 5,9 0,0
19.04.2019 05:00:00 4,7 4,5 0,0
19.04.2019 04:00:00 4,8 4,5 0,0
19.04.2019 03:00:00 5,9 5,7 0,0
19.04.2019 02:00:00 6,1 5,9 0,0
19.04.2019 01:00:00 5,6 5,1 0,0
19.04.2019 00:00:00 6,2 5,7 0,0
18.04.2019 23:00:00 6,4 5,8 0,0
18.04.2019 22:00:00 6,9 5,8 0,0
18.04.2019 21:00:00 7,4 5,9 0,0
18.04.2019 20:00:00 8,8 6,7 0,0
18.04.2019 19:00:00 10,2 6,8 0,0
18.04.2019 18:00:00 11,8 7,2 0,0
18.04.2019 17:00:00 12,0 7,2 0,0
18.04.2019 16:00:00 12,9 6,8 0,0
18.04.2019 15:00:00 14,2 7,3 0,0
18.04.2019 14:00:00 14,7 7,0 0,0
18.04.2019 13:00:00 14,5 6,5 0,0
18.04.2019 12:00:00 14,1 6,4 0,0
18.04.2019 11:00:00 12,8 6,7 0,0
18.04.2019 10:00:00 10,6 7,0 0,0
18.04.2019 09:00:00 8,1 6,6 0,0
18.04.2019 08:00:00 7,0 5,8 0,0
18.04.2019 07:00:00 6,7 6,0 0,0
18.04.2019 06:00:00 6,6 6,0 0,0
18.04.2019 05:00:00 6,4 5,9 0,0
18.04.2019 04:00:00 6,1 5,7 0,0
18.04.2019 03:00:00 5,6 5,5 0,0
18.04.2019 02:00:00 5,2 5,1 0,0
18.04.2019 01:00:00 4,4 4,4 0,0
18.04.2019 00:00:00 2,2 1,6 0,0
17.04.2019 23:00:00 3,4 2,3 0,0
17.04.2019 22:00:00 5,2 4,1 0,0
17.04.2019 21:00:00 6,0 4,5 0,0
17.04.2019 20:00:00 7,2 4,6 0,0
17.04.2019 19:00:00 8,9 4,4 0,0
17.04.2019 18:00:00 10,8 2,8 0,0
17.04.2019 17:00:00 11,6 2,0 0,0
17.04.2019 16:00:00 12,4 1,0 0,0
17.04.2019 15:00:00 12,7 2,7 0,0
17.04.2019 14:00:00 12,1 3,6 0,0
17.04.2019 13:00:00 11,5 3,2 0,0
17.04.2019 12:00:00 10,8 3,7 0,0
17.04.2019 11:00:00 9,5 3,8 0,0
17.04.2019 10:00:00 8,0 4,3 0,0
17.04.2019 09:00:00 7,4 4,8 0,0
17.04.2019 08:00:00 3,8 3,0 0,0
17.04.2019 07:00:00 2,6 1,7 0,0
17.04.2019 06:00:00 3,0 1,8 0,0
17.04.2019 05:00:00 3,1 1,4 0,0
17.04.2019 04:00:00 4,6 2,1 0,0
17.04.2019 03:00:00 5,3 2,2 0,0
17.04.2019 02:00:00 5,5 2,0 0,0
17.04.2019 01:00:00 5,7 2,1 0,0
17.04.2019 00:00:00 5,7 2,3 0,0
16.04.2019 23:00:00 5,8 2,5 0,0
16.04.2019 22:00:00 6,1 2,4 0,0
16.04.2019 21:00:00 6,0 2,7 0,0
16.04.2019 20:00:00 6,6 2,8 0,0
16.04.2019 19:00:00 7,1 2,7 0,0
16.04.2019 18:00:00 7,4 3,4 0,0
16.04.2019 17:00:00 7,4 4,0 0,0
16.04.2019 16:00:00 7,8 4,1 0,0
16.04.2019 15:00:00 7,8 4,0 0,0
16.04.2019 14:00:00 8,2 4,2 0,0
16.04.2019 13:00:00 8,1 4,7 0,0
16.04.2019 12:00:00 7,9 4,7 0,0
16.04.2019 11:00:00 8,0 4,9 0,0
16.04.2019 10:00:00 7,2 5,2 0,0
16.04.2019 09:00:00 7,1 5,0 0,0
16.04.2019 08:00:00 7,0 4,8 0,0
16.04.2019 07:00:00 6,8 4,5 0,0
16.04.2019 06:00:00 6,6 4,3 0,0
16.04.2019 05:00:00 6,5 4,1 0,0
16.04.2019 04:00:00 6,4 3,7 0,0
16.04.2019 03:00:00 6,4 3,6 0,0
16.04.2019 02:00:00 6,4 3,6 0,0
16.04.2019 01:00:00 6,4 3,7 0,0
16.04.2019 00:00:00 6,5 3,8 0,0
15.04.2019 23:00:00 6,6 3,7 0,0
15.04.2019 22:00:00 6,6 4,0 0,0
15.04.2019 21:00:00 6,7 4,1 0,0
15.04.2019 20:00:00 6,7 4,1 0,0
15.04.2019 19:00:00 6,9 4,4 0,0
15.04.2019 18:00:00 7,3 4,4 0,0
15.04.2019 17:00:00 7,4 4,7 0,0
15.04.2019 16:00:00 7,3 4,6 0,0
15.04.2019 15:00:00 7,5 3,8 0,0
15.04.2019 14:00:00 8,0 3,4 0,0
15.04.2019 13:00:00 8,5 2,9 0,0
15.04.2019 12:00:00 7,8 2,4 0,0
15.04.2019 11:00:00 7,3 1,5 0,0
15.04.2019 10:00:00 7,3 1,9 0,0
15.04.2019 09:00:00 6,5 2,4 0,0
15.04.2019 08:00:00 5,1 1,8 0,0
15.04.2019 07:00:00 3,2 1,1 0,0
15.04.2019 06:00:00 3,9 2,7 0,6
15.04.2019 05:00:00 4,6 2,6 0,8
15.04.2019 04:00:00 3,5 1,7 0,4
15.04.2019 03:00:00 5,1 -0,1 0,0
15.04.2019 02:00:00 4,7 -0,4 0,0
15.04.2019 01:00:00 5,0 0,4 0,0
15.04.2019 00:00:00 4,7 1,5 0,0
14.04.2019 23:00:00 4,8 1,0 0,0
14.04.2019 22:00:00 3,7 0,1 0,0
14.04.2019 21:00:00 4,9 0,2 0,0
14.04.2019 20:00:00 5,4 -0,7 0,0
14.04.2019 19:00:00 6,3 -0,8 0,0
14.04.2019 18:00:00 7,2 -0,7 0,0
14.04.2019 17:00:00 7,5 0,8 0,0
14.04.2019 16:00:00 7,8 0,0 0,0
14.04.2019 15:00:00 8,6 0,8 0,0
14.04.2019 14:00:00 7,9 0,0 0,0
14.04.2019 13:00:00 7,1 0,6 0,0
14.04.2019 12:00:00 7,1 0,6 0,0
14.04.2019 11:00:00 7,0 -0,2 0,0
14.04.2019 10:00:00 6,6 -1,0 0,0
14.04.2019 09:00:00 5,8 -1,2 0,0
14.04.2019 08:00:00 5,1 -0,8 0,0
14.04.2019 07:00:00 4,6 -1,2 0,0
14.04.2019 06:00:00 4,1 -1,1 0,0
14.04.2019 05:00:00 3,4 -0,9 0,0
14.04.2019 04:00:00 2,8 -0,9 0,0
14.04.2019 03:00:00 1,8 -1,1 0,0
14.04.2019 02:00:00 2,0 -0,9 0,0
14.04.2019 01:00:00 0,4 -1,2 0,0
14.04.2019 00:00:00 0,7 -1,4 0,0
13.04.2019 23:00:00 1,5 -0,8 0,0
13.04.2019 22:00:00 2,5 0,0 0,0
13.04.2019 21:00:00 3,6 0,1 0,0
13.04.2019 20:00:00 5,1 0,3 0,0
13.04.2019 19:00:00 6,5 -0,3 0,0
13.04.2019 18:00:00 6,8 -0,6 0,0
13.04.2019 17:00:00 7,0 -0,8 0,0
13.04.2019 16:00:00 7,6 -0,8 0,0

tt = Temperatura
td = dewpoint
rr = precipitazioni

Stazioni seguenti

WeatherPro
AMSI
MeteoEarth